Year,Month,Day,Hour,Minute,Value (Times are PST for temperature in C)
2012,07,09,00,00,16.30
2012,07,09,00,01,16.30
2012,07,09,00,02,16.20
2012,07,09,00,03,16.20
2012,07,09,00,04,16.10
2012,07,09,00,05,16.10
2012,07,09,00,06,16.10
2012,07,09,00,07,16.10
2012,07,09,00,08,16.00
2012,07,09,00,09,15.90
2012,07,09,00,10,15.90
2012,07,09,00,11,15.90
2012,07,09,00,12,15.80
2012,07,09,00,13,15.80
2012,07,09,00,14,15.80
2012,07,09,00,15,15.80
2012,07,09,00,16,15.80
2012,07,09,00,17,15.80
2012,07,09,00,18,15.80
2012,07,09,00,19,15.80
2012,07,09,00,20,15.70
2012,07,09,00,21,15.70
2012,07,09,00,22,15.70
2012,07,09,00,23,15.70
2012,07,09,00,24,15.60
2012,07,09,00,25,15.60
2012,07,09,00,26,15.60
2012,07,09,00,27,15.50
2012,07,09,00,28,15.50
2012,07,09,00,29,15.50
2012,07,09,00,30,15.50
2012,07,09,00,31,15.50
2012,07,09,00,32,15.50
2012,07,09,00,33,15.50
2012,07,09,00,34,15.50
2012,07,09,00,35,15.40
2012,07,09,00,36,15.40
2012,07,09,00,37,15.40
2012,07,09,00,38,15.30
2012,07,09,00,39,15.30
2012,07,09,00,40,15.30
2012,07,09,00,41,15.30
2012,07,09,00,42,15.30
2012,07,09,00,43,15.20
2012,07,09,00,44,15.20
2012,07,09,00,45,15.20
2012,07,09,00,46,15.20
2012,07,09,00,47,15.20
2012,07,09,00,48,15.10
2012,07,09,00,49,15.10
2012,07,09,00,50,15.10
2012,07,09,00,51,15.10
2012,07,09,00,52,15.10
2012,07,09,00,53,15.00
2012,07,09,00,54,15.00
2012,07,09,00,55,15.00
2012,07,09,00,56,15.00
2012,07,09,00,57,15.00
2012,07,09,00,58,15.00
2012,07,09,00,59,15.00
2012,07,09,01,00,15.00
2012,07,09,01,01,15.00
2012,07,09,01,02,15.00
2012,07,09,01,03,15.00
2012,07,09,01,04,15.00
2012,07,09,01,05,15.00
2012,07,09,01,06,15.00
2012,07,09,01,07,14.90
2012,07,09,01,08,14.90
2012,07,09,01,09,14.90
2012,07,09,01,10,14.80
2012,07,09,01,11,14.80
2012,07,09,01,12,14.80
2012,07,09,01,13,14.80
2012,07,09,01,14,14.80
2012,07,09,01,15,14.80
2012,07,09,01,16,14.80
2012,07,09,01,17,14.80
2012,07,09,01,18,14.70
2012,07,09,01,19,14.70
2012,07,09,01,20,14.70
2012,07,09,01,21,14.70
2012,07,09,01,22,14.60
2012,07,09,01,23,14.60
2012,07,09,01,24,14.60
2012,07,09,01,25,14.60
2012,07,09,01,26,14.50
2012,07,09,01,27,14.50
2012,07,09,01,28,14.50
2012,07,09,01,29,14.40
2012,07,09,01,30,14.40
2012,07,09,01,31,14.40
2012,07,09,01,32,14.40
2012,07,09,01,33,14.30
2012,07,09,01,34,14.30
2012,07,09,01,35,14.30
2012,07,09,01,36,14.20
2012,07,09,01,37,14.20
2012,07,09,01,38,14.20
2012,07,09,01,39,14.20
2012,07,09,01,40,14.20
2012,07,09,01,41,14.20
2012,07,09,01,42,14.20
2012,07,09,01,43,14.20
2012,07,09,01,44,14.20
2012,07,09,01,45,14.20
2012,07,09,01,46,14.20
2012,07,09,01,47,14.20
2012,07,09,01,48,14.20
2012,07,09,01,49,14.20
2012,07,09,01,50,14.10
2012,07,09,01,51,14.10
2012,07,09,01,52,14.10
2012,07,09,01,53,14.10
2012,07,09,01,54,14.00
2012,07,09,01,55,14.00
2012,07,09,01,56,14.00
2012,07,09,01,57,14.00
2012,07,09,01,58,14.00
2012,07,09,01,59,14.00
2012,07,09,02,00,14.00
2012,07,09,02,01,13.90
2012,07,09,02,02,13.90
2012,07,09,02,03,13.90
2012,07,09,02,04,13.90
2012,07,09,02,05,13.90
2012,07,09,02,06,13.90
2012,07,09,02,07,13.90
2012,07,09,02,08,13.90
2012,07,09,02,09,13.90
2012,07,09,02,10,13.90
2012,07,09,02,11,13.90
2012,07,09,02,12,13.90
2012,07,09,02,13,13.90
2012,07,09,02,14,13.90
2012,07,09,02,15,13.90
2012,07,09,02,16,13.90
2012,07,09,02,17,13.90
2012,07,09,02,18,13.90
2012,07,09,02,19,13.90
2012,07,09,02,20,13.90
2012,07,09,02,21,13.90
2012,07,09,02,22,13.90
2012,07,09,02,23,13.90
2012,07,09,02,24,13.90
2012,07,09,02,25,13.90
2012,07,09,02,26,13.90
2012,07,09,02,27,13.90
2012,07,09,02,28,13.90
2012,07,09,02,29,13.90
2012,07,09,02,30,13.90
2012,07,09,02,31,13.80
2012,07,09,02,32,13.80
2012,07,09,02,33,13.80
2012,07,09,02,34,13.80
2012,07,09,02,35,13.80
2012,07,09,02,36,13.80
2012,07,09,02,37,13.80
2012,07,09,02,38,13.80
2012,07,09,02,39,13.80
2012,07,09,02,40,13.80
2012,07,09,02,41,13.80
2012,07,09,02,42,13.80
2012,07,09,02,43,13.70
2012,07,09,02,44,13.70
2012,07,09,02,45,13.70
2012,07,09,02,46,13.70
2012,07,09,02,47,13.70
2012,07,09,02,48,13.70
2012,07,09,02,49,13.70
2012,07,09,02,50,13.70
2012,07,09,02,51,13.70
2012,07,09,02,52,13.70
2012,07,09,02,53,13.70
2012,07,09,02,54,13.70
2012,07,09,02,55,13.70
2012,07,09,02,56,13.70
2012,07,09,02,57,13.70
2012,07,09,02,58,13.70
2012,07,09,02,59,13.70
2012,07,09,03,00,13.70
2012,07,09,03,01,13.70
2012,07,09,03,02,13.80
2012,07,09,03,03,13.70
2012,07,09,03,04,13.70
2012,07,09,03,05,13.70
2012,07,09,03,06,13.70
2012,07,09,03,07,13.70
2012,07,09,03,08,13.70
2012,07,09,03,09,13.70
2012,07,09,03,10,13.70
2012,07,09,03,11,13.70
2012,07,09,03,12,13.70
2012,07,09,03,13,13.70
2012,07,09,03,14,13.70
2012,07,09,03,15,13.70
2012,07,09,03,16,13.70
2012,07,09,03,17,13.70
2012,07,09,03,18,13.70
2012,07,09,03,19,13.70
2012,07,09,03,20,13.70
2012,07,09,03,21,13.70
2012,07,09,03,22,13.70
2012,07,09,03,23,13.70
2012,07,09,03,24,13.70
2012,07,09,03,25,13.70
2012,07,09,03,26,13.70
2012,07,09,03,27,13.80
2012,07,09,03,28,13.80
2012,07,09,03,29,13.80
2012,07,09,03,30,13.80
2012,07,09,03,31,13.80
2012,07,09,03,32,13.80
2012,07,09,03,33,13.80
2012,07,09,03,34,13.80
2012,07,09,03,35,13.80
2012,07,09,03,36,13.80
2012,07,09,03,37,13.90
2012,07,09,03,38,13.90
2012,07,09,03,39,13.90
2012,07,09,03,40,13.90
2012,07,09,03,41,13.90
2012,07,09,03,42,13.90
2012,07,09,03,43,13.90
2012,07,09,03,44,13.90
2012,07,09,03,45,13.80
2012,07,09,03,46,13.80
2012,07,09,03,47,13.80
2012,07,09,03,48,13.80
2012,07,09,03,49,13.80
2012,07,09,03,50,13.80
2012,07,09,03,51,13.80
2012,07,09,03,52,13.80
2012,07,09,03,53,13.80
2012,07,09,03,54,13.80
2012,07,09,03,55,13.70
2012,07,09,03,56,13.70
2012,07,09,03,57,13.70
2012,07,09,03,58,13.70
2012,07,09,03,59,13.70
2012,07,09,04,00,13.70
2012,07,09,04,01,13.70
2012,07,09,04,02,13.70
2012,07,09,04,03,13.70
2012,07,09,04,04,13.70
2012,07,09,04,05,13.70
2012,07,09,04,06,13.70
2012,07,09,04,07,13.70
2012,07,09,04,08,13.70
2012,07,09,04,09,13.70
2012,07,09,04,10,13.70
2012,07,09,04,11,13.70
2012,07,09,04,12,13.60
2012,07,09,04,13,13.60
2012,07,09,04,14,13.60
2012,07,09,04,15,13.60
2012,07,09,04,16,13.60
2012,07,09,04,17,13.60
2012,07,09,04,18,13.60
2012,07,09,04,19,13.60
2012,07,09,04,20,13.60
2012,07,09,04,21,13.60
2012,07,09,04,22,13.60
2012,07,09,04,23,13.60
2012,07,09,04,24,13.60
2012,07,09,04,25,13.60
2012,07,09,04,26,13.60
2012,07,09,04,27,13.60
2012,07,09,04,28,13.60
2012,07,09,04,29,13.60
2012,07,09,04,30,13.60
2012,07,09,04,31,13.60
2012,07,09,04,32,13.60
2012,07,09,04,33,13.60
2012,07,09,04,34,13.60
2012,07,09,04,35,13.60
2012,07,09,04,36,13.60
2012,07,09,04,37,13.60
2012,07,09,04,38,13.60
2012,07,09,04,39,13.60
2012,07,09,04,40,13.60
2012,07,09,04,41,13.60
2012,07,09,04,42,13.60
2012,07,09,04,43,13.60
2012,07,09,04,44,13.60
2012,07,09,04,45,13.60
2012,07,09,04,46,13.60
2012,07,09,04,47,13.60
2012,07,09,04,48,13.60
2012,07,09,04,49,13.50
2012,07,09,04,50,13.50
2012,07,09,04,51,13.50
2012,07,09,04,52,13.50
2012,07,09,04,53,13.40
2012,07,09,04,54,13.40
2012,07,09,04,55,13.40
2012,07,09,04,56,13.40
2012,07,09,04,57,13.40
2012,07,09,04,58,13.40
2012,07,09,04,59,13.40
2012,07,09,05,00,13.40
2012,07,09,05,01,13.40
2012,07,09,05,02,13.40
2012,07,09,05,03,13.40
2012,07,09,05,04,13.40
2012,07,09,05,05,13.40
2012,07,09,05,06,13.40
2012,07,09,05,07,13.40
2012,07,09,05,08,13.50
2012,07,09,05,09,13.50
2012,07,09,05,10,13.50
2012,07,09,05,11,13.50
2012,07,09,05,12,13.50
2012,07,09,05,13,13.40
2012,07,09,05,14,13.30
2012,07,09,05,15,13.30
2012,07,09,05,16,13.20
2012,07,09,05,17,13.10
2012,07,09,05,18,13.00
2012,07,09,05,19,12.90
2012,07,09,05,20,12.80
2012,07,09,05,21,12.70
2012,07,09,05,22,12.60
2012,07,09,05,23,12.60
2012,07,09,05,24,12.50
2012,07,09,05,25,12.50
2012,07,09,05,26,12.40
2012,07,09,05,27,12.40
2012,07,09,05,28,12.30
2012,07,09,05,29,12.30
2012,07,09,05,30,12.30
2012,07,09,05,31,12.30
2012,07,09,05,32,12.30
2012,07,09,05,33,12.30
2012,07,09,05,34,12.20
2012,07,09,05,35,12.20
2012,07,09,05,36,12.20
2012,07,09,05,37,12.10
2012,07,09,05,38,12.10
2012,07,09,05,39,12.10
2012,07,09,05,40,12.10
2012,07,09,05,41,12.00
2012,07,09,05,42,12.00
2012,07,09,05,43,12.00
2012,07,09,05,44,12.00
2012,07,09,05,45,11.90
2012,07,09,05,46,11.90
2012,07,09,05,47,11.90
2012,07,09,05,48,11.90
2012,07,09,05,49,11.80
2012,07,09,05,50,11.80
2012,07,09,05,51,11.80
2012,07,09,05,52,11.80
2012,07,09,05,53,11.80
2012,07,09,05,54,11.90
2012,07,09,05,55,11.90
2012,07,09,05,56,11.90
2012,07,09,05,57,11.90
2012,07,09,05,58,11.90
2012,07,09,05,59,11.90
2012,07,09,06,00,11.90
2012,07,09,06,01,11.90
2012,07,09,06,02,11.90
2012,07,09,06,03,11.90
2012,07,09,06,04,12.00
2012,07,09,06,05,12.00
2012,07,09,06,06,12.00
2012,07,09,06,07,12.00
2012,07,09,06,08,12.00
2012,07,09,06,09,12.00
2012,07,09,06,10,12.00
2012,07,09,06,11,12.10
2012,07,09,06,12,12.10
2012,07,09,06,13,12.10
2012,07,09,06,14,12.10
2012,07,09,06,15,12.10
2012,07,09,06,16,12.10
2012,07,09,06,17,12.20
2012,07,09,06,18,12.20
2012,07,09,06,19,12.30
2012,07,09,06,20,12.30
2012,07,09,06,21,12.30
2012,07,09,06,22,12.30
2012,07,09,06,23,12.30
2012,07,09,06,24,12.30
2012,07,09,06,25,12.30
2012,07,09,06,26,12.40
2012,07,09,06,27,12.40
2012,07,09,06,28,12.40
2012,07,09,06,29,12.40
2012,07,09,06,30,12.40
2012,07,09,06,31,12.40
2012,07,09,06,32,12.50
2012,07,09,06,33,12.50
2012,07,09,06,34,12.60
2012,07,09,06,35,12.60
2012,07,09,06,36,12.70
2012,07,09,06,37,12.80
2012,07,09,06,38,12.80
2012,07,09,06,39,12.80
2012,07,09,06,40,12.80
2012,07,09,06,41,12.90
2012,07,09,06,42,12.90
2012,07,09,06,43,12.90
2012,07,09,06,44,12.90
2012,07,09,06,45,12.90
2012,07,09,06,46,13.00
2012,07,09,06,47,13.00
2012,07,09,06,48,13.10
2012,07,09,06,49,13.10
2012,07,09,06,50,13.10
2012,07,09,06,51,13.20
2012,07,09,06,52,13.20
2012,07,09,06,53,13.20
2012,07,09,06,54,13.20
2012,07,09,06,55,13.20
2012,07,09,06,56,13.20
2012,07,09,06,57,13.20
2012,07,09,06,58,13.30
2012,07,09,06,59,13.30
2012,07,09,07,00,13.30
2012,07,09,07,01,13.30
2012,07,09,07,02,13.30
2012,07,09,07,03,13.40
2012,07,09,07,04,13.50
2012,07,09,07,05,13.50
2012,07,09,07,06,13.50
2012,07,09,07,07,13.60
2012,07,09,07,08,13.60
2012,07,09,07,09,13.60
2012,07,09,07,10,13.70
2012,07,09,07,11,13.70
2012,07,09,07,12,13.80
2012,07,09,07,13,13.80
2012,07,09,07,14,13.90
2012,07,09,07,15,13.90
2012,07,09,07,16,14.00
2012,07,09,07,17,14.00
2012,07,09,07,18,14.10
2012,07,09,07,19,14.10
2012,07,09,07,20,14.20
2012,07,09,07,21,14.20
2012,07,09,07,22,14.30
2012,07,09,07,23,14.40
2012,07,09,07,24,14.40
2012,07,09,07,25,14.50
2012,07,09,07,26,14.60
2012,07,09,07,27,14.60
2012,07,09,07,28,14.70
2012,07,09,07,29,14.70
2012,07,09,07,30,14.80
2012,07,09,07,31,14.80
2012,07,09,07,32,14.90
2012,07,09,07,33,14.90
2012,07,09,07,34,15.00
2012,07,09,07,35,15.00
2012,07,09,07,36,15.00
2012,07,09,07,37,15.10
2012,07,09,07,38,15.10
2012,07,09,07,39,15.10
2012,07,09,07,40,15.00
2012,07,09,07,41,15.00
2012,07,09,07,42,15.00
2012,07,09,07,43,15.00
2012,07,09,07,44,15.10
2012,07,09,07,45,15.10
2012,07,09,07,46,15.00
2012,07,09,07,47,15.00
2012,07,09,07,48,15.10
2012,07,09,07,49,15.10
2012,07,09,07,50,15.20
2012,07,09,07,51,15.20
2012,07,09,07,52,15.30
2012,07,09,07,53,15.30
2012,07,09,07,54,15.30
2012,07,09,07,55,15.30
2012,07,09,07,56,15.30
2012,07,09,07,57,15.30
2012,07,09,07,58,15.40
2012,07,09,07,59,15.40
2012,07,09,08,00,15.40
2012,07,09,08,01,15.40
2012,07,09,08,02,15.40
2012,07,09,08,03,15.40
2012,07,09,08,04,15.50
2012,07,09,08,05,15.50
2012,07,09,08,06,15.50
2012,07,09,08,07,15.60
2012,07,09,08,08,15.60
2012,07,09,08,09,15.60
2012,07,09,08,10,15.60
2012,07,09,08,11,15.70
2012,07,09,08,12,15.80
2012,07,09,08,13,15.80
2012,07,09,08,14,15.80
2012,07,09,08,15,15.80
2012,07,09,08,16,15.80
2012,07,09,08,17,15.80
2012,07,09,08,18,15.80
2012,07,09,08,19,15.90
2012,07,09,08,20,15.90
2012,07,09,08,21,15.90
2012,07,09,08,22,15.90
2012,07,09,08,23,15.90
2012,07,09,08,24,16.00
2012,07,09,08,25,16.10
2012,07,09,08,26,16.10
2012,07,09,08,27,16.20
2012,07,09,08,28,16.30
2012,07,09,08,29,16.40
2012,07,09,08,30,16.40
2012,07,09,08,31,16.50
2012,07,09,08,32,16.60
2012,07,09,08,33,16.60
2012,07,09,08,34,16.70
2012,07,09,08,35,16.70
2012,07,09,08,36,16.70
2012,07,09,08,37,16.70
2012,07,09,08,38,16.70
2012,07,09,08,39,16.70
2012,07,09,08,40,16.70
2012,07,09,08,41,16.70
2012,07,09,08,42,16.70
2012,07,09,08,43,16.70
2012,07,09,08,44,16.70
2012,07,09,08,45,16.70
2012,07,09,08,46,16.80
2012,07,09,08,47,16.80
2012,07,09,08,48,16.90
2012,07,09,08,49,17.00
2012,07,09,08,50,17.10
2012,07,09,08,51,17.30
2012,07,09,08,52,17.30
2012,07,09,08,53,17.30
2012,07,09,08,54,17.30
2012,07,09,08,55,17.40
2012,07,09,08,56,17.50
2012,07,09,08,57,17.60
2012,07,09,08,58,17.60
2012,07,09,08,59,17.70
2012,07,09,09,00,17.70
2012,07,09,09,01,17.70
2012,07,09,09,02,17.60
2012,07,09,09,03,17.70
2012,07,09,09,04,17.60
2012,07,09,09,05,17.50
2012,07,09,09,06,17.50
2012,07,09,09,07,17.50
2012,07,09,09,08,17.50
2012,07,09,09,09,17.50
2012,07,09,09,10,17.60
2012,07,09,09,11,17.70
2012,07,09,09,12,17.80
2012,07,09,09,13,17.90
2012,07,09,09,14,17.90
2012,07,09,09,15,17.90
2012,07,09,09,16,17.90
2012,07,09,09,17,18.00
2012,07,09,09,18,18.10
2012,07,09,09,19,18.10
2012,07,09,09,20,18.20
2012,07,09,09,21,18.20
2012,07,09,09,22,18.20
2012,07,09,09,23,18.20
2012,07,09,09,24,18.20
2012,07,09,09,25,18.20
2012,07,09,09,26,18.20
2012,07,09,09,27,18.20
2012,07,09,09,28,18.20
2012,07,09,09,29,18.20
2012,07,09,09,30,18.30
2012,07,09,09,31,18.40
2012,07,09,09,32,18.50
2012,07,09,09,33,18.50
2012,07,09,09,34,18.50
2012,07,09,09,35,18.40
2012,07,09,09,36,18.50
2012,07,09,09,37,18.50
2012,07,09,09,38,18.50
2012,07,09,09,39,18.50
2012,07,09,09,40,18.60
2012,07,09,09,41,18.70
2012,07,09,09,42,18.90
2012,07,09,09,43,18.90
2012,07,09,09,44,18.90
2012,07,09,09,45,18.90
2012,07,09,09,46,18.90
2012,07,09,09,47,18.90
2012,07,09,09,48,18.80
2012,07,09,09,49,18.90
2012,07,09,09,50,18.90
2012,07,09,09,51,18.90
2012,07,09,09,52,18.90
2012,07,09,09,53,18.90
2012,07,09,09,54,18.90
2012,07,09,09,55,18.90
2012,07,09,09,56,18.90
2012,07,09,09,57,18.90
2012,07,09,09,58,19.00
2012,07,09,09,59,19.10
2012,07,09,10,00,19.10
2012,07,09,10,01,19.20
2012,07,09,10,02,19.20
2012,07,09,10,03,19.30
2012,07,09,10,04,19.30
2012,07,09,10,05,19.40
2012,07,09,10,06,19.40
2012,07,09,10,07,19.50
2012,07,09,10,08,19.70
2012,07,09,10,09,19.70
2012,07,09,10,10,19.80
2012,07,09,10,11,19.90
2012,07,09,10,12,19.90
2012,07,09,10,13,20.10
2012,07,09,10,14,20.20
2012,07,09,10,15,20.30
2012,07,09,10,16,20.40
2012,07,09,10,17,20.40
2012,07,09,10,18,20.50
2012,07,09,10,19,20.50
2012,07,09,10,20,20.60
2012,07,09,10,21,20.60
2012,07,09,10,22,20.70
2012,07,09,10,23,20.70
2012,07,09,10,24,20.80
2012,07,09,10,25,20.80
2012,07,09,10,26,20.90
2012,07,09,10,27,20.90
2012,07,09,10,28,20.90
2012,07,09,10,29,21.00
2012,07,09,10,30,21.00
2012,07,09,10,31,21.00
2012,07,09,10,32,21.10
2012,07,09,10,33,21.10
2012,07,09,10,34,21.10
2012,07,09,10,35,21.20
2012,07,09,10,36,21.20
2012,07,09,10,37,21.30
2012,07,09,10,38,21.30
2012,07,09,10,39,21.30
2012,07,09,10,40,21.40
2012,07,09,10,41,21.40
2012,07,09,10,42,21.40
2012,07,09,10,43,21.30
2012,07,09,10,44,21.30
2012,07,09,10,45,21.20
2012,07,09,10,46,21.10
2012,07,09,10,47,21.10
2012,07,09,10,48,21.00
2012,07,09,10,49,20.90
2012,07,09,10,50,20.80
2012,07,09,10,51,20.80
2012,07,09,10,52,20.70
2012,07,09,10,53,20.70
2012,07,09,10,54,20.70
2012,07,09,10,55,20.80
2012,07,09,10,56,20.70
2012,07,09,10,57,20.50
2012,07,09,10,58,20.40
2012,07,09,10,59,20.20
2012,07,09,11,00,20.20
2012,07,09,11,01,20.20
2012,07,09,11,02,20.20
2012,07,09,11,03,20.20
2012,07,09,11,04,20.30
2012,07,09,11,05,20.40
2012,07,09,11,06,20.30
2012,07,09,11,07,20.30
2012,07,09,11,08,20.30
2012,07,09,11,09,20.30
2012,07,09,11,10,20.40
2012,07,09,11,11,20.40
2012,07,09,11,12,20.40
2012,07,09,11,13,20.40
2012,07,09,11,14,20.30
2012,07,09,11,15,20.30
2012,07,09,11,16,20.30
2012,07,09,11,17,20.40
2012,07,09,11,18,20.50
2012,07,09,11,19,20.50
2012,07,09,11,20,20.70
2012,07,09,11,21,20.80
2012,07,09,11,22,20.90
2012,07,09,11,23,21.00
2012,07,09,11,24,21.10
2012,07,09,11,25,21.20
2012,07,09,11,26,21.20
2012,07,09,11,27,21.20
2012,07,09,11,28,21.20
2012,07,09,11,29,21.20
2012,07,09,11,30,21.00
2012,07,09,11,31,20.90
2012,07,09,11,32,20.80
2012,07,09,11,33,20.70
2012,07,09,11,34,20.60
2012,07,09,11,35,20.60
2012,07,09,11,36,20.50
2012,07,09,11,37,20.60
2012,07,09,11,38,20.70
2012,07,09,11,39,20.80
2012,07,09,11,40,20.80
2012,07,09,11,41,20.80
2012,07,09,11,42,20.80
2012,07,09,11,43,20.80
2012,07,09,11,44,20.90
2012,07,09,11,45,21.10
2012,07,09,11,46,21.20
2012,07,09,11,47,21.30
2012,07,09,11,48,21.40
2012,07,09,11,49,21.50
2012,07,09,11,50,21.60
2012,07,09,11,51,21.50
2012,07,09,11,52,21.40
2012,07,09,11,53,21.40
2012,07,09,11,54,21.40
2012,07,09,11,55,21.40
2012,07,09,11,56,21.40
2012,07,09,11,57,21.40
2012,07,09,11,58,21.60
2012,07,09,11,59,21.60
2012,07,09,12,00,21.70
2012,07,09,12,01,21.70
2012,07,09,12,02,21.80
2012,07,09,12,03,21.90
2012,07,09,12,04,22.00
2012,07,09,12,05,22.00
2012,07,09,12,06,22.10
2012,07,09,12,07,22.10
2012,07,09,12,08,22.10
2012,07,09,12,09,22.10
2012,07,09,12,10,22.00
2012,07,09,12,11,22.00
2012,07,09,12,12,21.90
2012,07,09,12,13,21.90
2012,07,09,12,14,21.80
2012,07,09,12,15,21.90
2012,07,09,12,16,22.00
2012,07,09,12,17,22.10
2012,07,09,12,18,22.20
2012,07,09,12,19,22.30
2012,07,09,12,20,22.30
2012,07,09,12,21,22.20
2012,07,09,12,22,22.10
2012,07,09,12,23,22.00
2012,07,09,12,24,21.90
2012,07,09,12,25,22.00
2012,07,09,12,26,22.00
2012,07,09,12,27,22.00
2012,07,09,12,28,22.20
2012,07,09,12,29,22.30
2012,07,09,12,30,22.50
2012,07,09,12,31,22.60
2012,07,09,12,32,22.60
2012,07,09,12,33,22.60
2012,07,09,12,34,22.40
2012,07,09,12,35,22.30
2012,07,09,12,36,22.10
2012,07,09,12,37,22.10
2012,07,09,12,38,22.20
2012,07,09,12,39,22.30
2012,07,09,12,40,22.50
2012,07,09,12,41,22.40
2012,07,09,12,42,22.30
2012,07,09,12,43,22.20
2012,07,09,12,44,22.20
2012,07,09,12,45,22.30
2012,07,09,12,46,22.40
2012,07,09,12,47,22.50
2012,07,09,12,48,22.60
2012,07,09,12,49,22.60
2012,07,09,12,50,22.50
2012,07,09,12,51,22.40
2012,07,09,12,52,22.50
2012,07,09,12,53,22.50
2012,07,09,12,54,22.60
2012,07,09,12,55,22.60
2012,07,09,12,56,22.60
2012,07,09,12,57,22.40
2012,07,09,12,58,22.30
2012,07,09,12,59,22.40
2012,07,09,13,00,22.40
2012,07,09,13,01,22.50
2012,07,09,13,02,22.60
2012,07,09,13,03,22.60
2012,07,09,13,04,22.60
2012,07,09,13,05,22.70
2012,07,09,13,06,22.60
2012,07,09,13,07,22.70
2012,07,09,13,08,22.80
2012,07,09,13,09,22.80
2012,07,09,13,10,22.80
2012,07,09,13,11,22.80
2012,07,09,13,12,22.80
2012,07,09,13,13,22.80
2012,07,09,13,14,22.90
2012,07,09,13,15,22.70
2012,07,09,13,16,22.60
2012,07,09,13,17,22.50
2012,07,09,13,18,22.50
2012,07,09,13,19,22.60
2012,07,09,13,20,22.60
2012,07,09,13,21,22.50
2012,07,09,13,22,22.40
2012,07,09,13,23,22.40
2012,07,09,13,24,22.30
2012,07,09,13,25,22.30
2012,07,09,13,26,22.20
2012,07,09,13,27,22.30
2012,07,09,13,28,22.30
2012,07,09,13,29,22.30
2012,07,09,13,30,22.40
2012,07,09,13,31,22.30
2012,07,09,13,32,22.10
2012,07,09,13,33,22.20
2012,07,09,13,34,22.20
2012,07,09,13,35,22.30
2012,07,09,13,36,22.20
2012,07,09,13,37,22.30
2012,07,09,13,38,22.30
2012,07,09,13,39,22.30
2012,07,09,13,40,22.40
2012,07,09,13,41,22.40
2012,07,09,13,42,22.50
2012,07,09,13,43,22.50
2012,07,09,13,44,22.50
2012,07,09,13,45,22.50
2012,07,09,13,46,22.60
2012,07,09,13,47,22.70
2012,07,09,13,48,22.80
2012,07,09,13,49,22.90
2012,07,09,13,50,22.90
2012,07,09,13,51,22.80
2012,07,09,13,52,22.90
2012,07,09,13,53,22.90
2012,07,09,13,54,22.80
2012,07,09,13,55,22.80
2012,07,09,13,56,22.70
2012,07,09,13,57,22.70
2012,07,09,13,58,22.80
2012,07,09,13,59,22.90
2012,07,09,14,00,22.90
2012,07,09,14,01,22.90
2012,07,09,14,02,22.90
2012,07,09,14,03,22.90
2012,07,09,14,04,22.90
2012,07,09,14,05,22.90
2012,07,09,14,06,22.70
2012,07,09,14,07,22.60
2012,07,09,14,08,22.60
2012,07,09,14,09,22.60
2012,07,09,14,10,22.70
2012,07,09,14,11,22.70
2012,07,09,14,12,22.70
2012,07,09,14,13,22.70
2012,07,09,14,14,22.80
2012,07,09,14,15,22.80
2012,07,09,14,16,22.80
2012,07,09,14,17,22.80
2012,07,09,14,18,22.80
2012,07,09,14,19,22.80
2012,07,09,14,20,22.90
2012,07,09,14,21,22.90
2012,07,09,14,22,22.90
2012,07,09,14,23,22.80
2012,07,09,14,24,22.80
2012,07,09,14,25,22.80
2012,07,09,14,26,22.90
2012,07,09,14,27,22.80
2012,07,09,14,28,22.90
2012,07,09,14,29,23.00
2012,07,09,14,30,23.10
2012,07,09,14,31,23.20
2012,07,09,14,32,23.30
2012,07,09,14,33,23.30
2012,07,09,14,34,23.30
2012,07,09,14,35,23.20
2012,07,09,14,36,23.20
2012,07,09,14,37,23.10
2012,07,09,14,38,23.10
2012,07,09,14,39,23.10
2012,07,09,14,40,23.30
2012,07,09,14,41,23.30
2012,07,09,14,42,23.20
2012,07,09,14,43,23.20
2012,07,09,14,44,23.20
2012,07,09,14,45,23.30
2012,07,09,14,46,23.20
2012,07,09,14,47,23.20
2012,07,09,14,48,23.20
2012,07,09,14,49,23.30
2012,07,09,14,50,23.30
2012,07,09,14,51,23.40
2012,07,09,14,52,23.40
2012,07,09,14,53,23.30
2012,07,09,14,54,23.30
2012,07,09,14,55,23.20
2012,07,09,14,56,23.10
2012,07,09,14,57,23.00
2012,07,09,14,58,22.90
2012,07,09,14,59,22.90
2012,07,09,15,00,22.90
2012,07,09,15,01,22.80
2012,07,09,15,02,22.80
2012,07,09,15,03,22.80
2012,07,09,15,04,22.80
2012,07,09,15,05,22.90
2012,07,09,15,06,23.10
2012,07,09,15,07,23.20
2012,07,09,15,08,23.10
2012,07,09,15,09,23.10
2012,07,09,15,10,23.10
2012,07,09,15,11,23.10
2012,07,09,15,12,23.00
2012,07,09,15,13,23.00
2012,07,09,15,14,23.10
2012,07,09,15,15,23.20
2012,07,09,15,16,23.30
2012,07,09,15,17,23.30
2012,07,09,15,18,23.20
2012,07,09,15,19,23.00
2012,07,09,15,20,22.90
2012,07,09,15,21,22.90
2012,07,09,15,22,23.10
2012,07,09,15,23,23.20
2012,07,09,15,24,23.30
2012,07,09,15,25,23.30
2012,07,09,15,26,23.30
2012,07,09,15,27,23.30
2012,07,09,15,28,23.30
2012,07,09,15,29,23.20
2012,07,09,15,30,23.20
2012,07,09,15,31,23.20
2012,07,09,15,32,23.10
2012,07,09,15,33,23.10
2012,07,09,15,34,23.20
2012,07,09,15,35,23.30
2012,07,09,15,36,23.20
2012,07,09,15,37,23.20
2012,07,09,15,38,23.20
2012,07,09,15,39,23.20
2012,07,09,15,40,23.20
2012,07,09,15,41,23.20
2012,07,09,15,42,23.00
2012,07,09,15,43,22.90
2012,07,09,15,44,23.00
2012,07,09,15,45,23.10
2012,07,09,15,46,23.10
2012,07,09,15,47,23.20
2012,07,09,15,48,23.30
2012,07,09,15,49,23.40
2012,07,09,15,50,23.40
2012,07,09,15,51,23.30
2012,07,09,15,52,23.30
2012,07,09,15,53,23.30
2012,07,09,15,54,23.40
2012,07,09,15,55,23.40
2012,07,09,15,56,23.30
2012,07,09,15,57,23.30
2012,07,09,15,58,23.30
2012,07,09,15,59,23.40
2012,07,09,16,00,23.60
2012,07,09,16,01,23.70
2012,07,09,16,02,23.80
2012,07,09,16,03,23.70
2012,07,09,16,04,23.70
2012,07,09,16,05,23.70
2012,07,09,16,06,23.60
2012,07,09,16,07,23.60
2012,07,09,16,08,23.60
2012,07,09,16,09,23.70
2012,07,09,16,10,23.80
2012,07,09,16,11,23.90
2012,07,09,16,12,24.00
2012,07,09,16,13,24.10
2012,07,09,16,14,24.10
2012,07,09,16,15,24.30
2012,07,09,16,16,24.40
2012,07,09,16,17,24.50
2012,07,09,16,18,24.50
2012,07,09,16,19,24.60
2012,07,09,16,20,24.70
2012,07,09,16,21,24.80
2012,07,09,16,22,24.70
2012,07,09,16,23,24.80
2012,07,09,16,24,24.90
2012,07,09,16,25,24.90
2012,07,09,16,26,24.90
2012,07,09,16,27,24.80
2012,07,09,16,28,24.70
2012,07,09,16,29,24.60
2012,07,09,16,30,24.50
2012,07,09,16,31,24.50
2012,07,09,16,32,24.50
2012,07,09,16,33,24.60
2012,07,09,16,34,24.60
2012,07,09,16,35,24.70
2012,07,09,16,36,24.80
2012,07,09,16,37,24.80
2012,07,09,16,38,24.80
2012,07,09,16,39,24.70
2012,07,09,16,40,24.70
2012,07,09,16,41,24.80
2012,07,09,16,42,24.80
2012,07,09,16,43,24.80
2012,07,09,16,44,24.70
2012,07,09,16,45,24.60
2012,07,09,16,46,24.60
2012,07,09,16,47,24.70
2012,07,09,16,48,24.80
2012,07,09,16,49,24.80
2012,07,09,16,50,24.90
2012,07,09,16,51,24.90
2012,07,09,16,52,24.80
2012,07,09,16,53,24.70
2012,07,09,16,54,24.70
2012,07,09,16,55,24.90
2012,07,09,16,56,25.00
2012,07,09,16,57,25.00
2012,07,09,16,58,24.80
2012,07,09,16,59,24.60
2012,07,09,17,00,24.50
2012,07,09,17,01,24.50
2012,07,09,17,02,24.50
2012,07,09,17,03,24.50
2012,07,09,17,04,24.60
2012,07,09,17,05,24.80
2012,07,09,17,06,24.90
2012,07,09,17,07,24.90
2012,07,09,17,08,24.80
2012,07,09,17,09,24.60
2012,07,09,17,10,24.50
2012,07,09,17,11,24.40
2012,07,09,17,12,24.20
2012,07,09,17,13,24.10
2012,07,09,17,14,24.10
2012,07,09,17,15,24.00
2012,07,09,17,16,23.90
2012,07,09,17,17,23.80
2012,07,09,17,18,23.80
2012,07,09,17,19,23.90